This is the latest recevied weather packets stored in our database for station/object N5RPG. If no packets are shown the sender has not sent any weather packets the latest 10 day(s).
| Time | Temp. | Humidity | Pressure | Rain* | Wind** | Luminosity | Snow |
|---|---|---|---|---|---|---|---|
| 1777919779 | 26.11° C | 45% | 1014.5 hPa | 0 mm | - | 980 W/m² | - |
| 1777919476 | 26.11° C | 45% | 1014.9 hPa | 0 mm | - | 976 W/m² | - |
| 1777919174 | 26.11° C | 47% | 1014.6 hPa | 0 mm | - | 942 W/m² | - |
| 1777918871 | 26.11° C | 47% | 1014.8 hPa | 0 mm | - | 987 W/m² | - |
| 1777918568 | 25.56° C | 48% | 1014.9 hPa | 0 mm | - | 691 W/m² | - |
| 1777918266 | 26.11° C | 46% | 1015.1 hPa | 0 mm | - | 911 W/m² | - |
| 1777917964 | 25.56° C | 45% | 1015.1 hPa | 0 mm | - | 928 W/m² | - |
| 1777917663 | 25.56° C | 47% | 1015.3 hPa | 0 mm | - | 888 W/m² | - |
| 1777917360 | 25° C | 48% | 1015.5 hPa | 0 mm | - | 911 W/m² | - |
| 1777917057 | 25° C | 45% | 1015.4 hPa | 0 mm | - | 691 W/m² | - |
| 1777916755 | 25° C | 45% | 1015.4 hPa | 0 mm | - | 880 W/m² | - |
| 1777916451 | 25° C | 45% | 1015.8 hPa | 0 mm | - | 939 W/m² | - |
| 1777916148 | 25° C | 46% | 1015.6 hPa | 0 mm | - | 739 W/m² | - |
| 1777915845 | 25.56° C | 45% | 1015.7 hPa | 0 mm | - | 946 W/m² | - |
| 1777915541 | 25.56° C | 48% | 1015.6 hPa | 0 mm | - | 937 W/m² | - |
| 1777915238 | 25° C | 47% | 1015.6 hPa | 0 mm | - | 865 W/m² | - |
| 1777914935 | 25° C | 46% | 1015.6 hPa | 0 mm | - | 781 W/m² | - |
| 1777914632 | 25° C | 48% | 1015.6 hPa | 0 mm | - | 88 W/m² | - |
| 1777914328 | 24.44° C | 47% | 1015.6 hPa | 0 mm | - | 877 W/m² | - |
| 1777914026 | 24.44° C | 49% | 1015.7 hPa | 0 mm | - | 916 W/m² | - |
| 1777913721 | 24.44° C | 50% | 1015.8 hPa | 0 mm | - | 907 W/m² | - |
| 1777913418 | 24.44° C | 51% | 1015.9 hPa | 0 mm | - | 904 W/m² | - |
| 1777913115 | 23.89° C | 50% | 1016 hPa | 0 mm | - | 866 W/m² | - |
| 1777912811 | 23.89° C | 50% | 1016.1 hPa | 0 mm | - | 905 W/m² | - |
| 1777912507 | 23.89° C | 50% | 1016 hPa | 0 mm | - | 895 W/m² | - |
* Rain latest hour (hover to see other rain measurements)
** Current wind speed in m/s (hover to see current wind gust speed)